Location: S�tio Afonso Gruber
(26.1760°S, 49.5250°W)
Time: 17:50:44
(UTC+00:00)

KAITUO 1B - Visible Passes

Search period start: 30 November 2022 00:00
Search period end: 10 December 2022 00:00
Orbit: 466 x 485 km, 97.4° (Epoch: 30 November)

Date Brightness Start Highest point End Pass type
(mag) Time Alt. Az. Time Alt. Az. Time Alt. Az.
30 Nov ? 22:21:02 10° S 22:24:17 32° WSW 22:27:29 10° NW visible
03 Dec ? 22:32:56 10° SSW 22:35:47 22° WSW 22:38:34 10° NW visible
06 Dec ? 22:44:50 10° SW 22:47:02 16° WSW 22:49:12 10° WNW visible
09 Dec ? 22:57:07 10° SW 22:58:03 11° WSW 22:58:59 10° W visible
